Location: ?ern� Novina
(50.6762°N, 14.8696°E)
Time: 03:01:13
(UTC+00:00)

Cosmos 1867 - Pass Details

Date: 03 March 2021
Orbit: 774 x 801 km, 65.0° (Epoch: 12 April)

Event Time Altitude Azimuth Distance (km) Brightness Sun altitude
Rises 17:19:27 0° 233° (SW) 3,278 7.8 -6.2°
Reaches altitude 10° 17:21:54 10° 238° (WSW) 2,356 7.1 -6.6°
Maximum altitude 17:27:15 58° 317° (NW) 931 4.2 -7.4°
Drops below altitude 10° 17:32:39 10° 36° (NE) 2,383 5.7 -8.3°
Sets 17:35:09 0° 41° (NE) 3,318 6.4 -8.7°
